Regional Weather Roundup
Issued by NWS Wakefield, VA

Home | Current Version | Previous Version | Text Only | Print | Product List | Glossary On
Versions: 1 2 3 4 5 6 7 8 9 10 11 12 13 14 15 16 17 18 19 20 21 22 23 24 25 26 27 28 29 30 31 32 33 34 35 36 37 38 39 40 41 42 43 44 45 46 47 48 49 50
000
ASUS41 KAKQ 291213
RWRAKQ

REGIONAL WEATHER ROUNDUP
NATIONAL WEATHER SERVICE WAKEFIELD VA
800 AM EDT SUN MAR 29 2015

Note: "fair" indicates few or no clouds below 12,000 feet with no
significant weather and/or obstructions to visibility. * = Denotes
station may not report precipitation (e.g., rain,snow,etc.),
thunder or fog.

VAZ042-051-052>054-056-291300-
NORTHERN VIRGINIA

CITY           SKY/WX    TMP DP  RH WIND       PRES   REMARKS
WASH NATIONAL  SUNNY     29   8  41 NW13      30.39R WCI  19
DULLES         SUNNY     24   8  50 NW5       30.38R
FORT BELVOIR   SUNNY     26   7  43 NW12      30.39R WCI  16
QUANTICO       SUNNY     28   6  39 N7        30.41R
FREDERICKSBRG* SUNNY     28   8  43 NW5       30.40R
STAFFORD*      SUNNY     23   9  54 CALM      30.44R
WARRENTON      SUNNY     28  14  55 NW6       30.39R
CULPEPER*      SUNNY     27   9  46 CALM      30.39R
MANASSAS*      SUNNY     27  12  54 NW5       30.40R
LEESBURG*      SUNNY     27  14  59 NW8       30.39R
WINCHESTER     SUNNY     23   7  50 CALM      30.36R
FRONT ROYAL*   FAIR      25   7  46 CALM      30.36R
LURAY*         FAIR      27  12  54 SW3       30.35S
$$

VAZ048-049-060>072-079>083-291300-
CENTRAL AND SOUTH CENTRAL VIRGINIA

CITY           SKY/WX    TMP DP  RH WIND       PRES   REMARKS
RICHMOND       SUNNY     29   6  38 N10       30.39R WCI  20
CHESTERFIELD*  NOT AVBL
PETERSBURG*    SUNNY     29   9  44 N5        30.41R
HANOVER        SUNNY     26   7  44 CALM      30.41R
TAPPAHANNOCK*  SUNNY     27   4  38 W5        30.39R
QUINTON*       FAIR      27   7  43 NW5       30.40R
CHARLOTTSVILLE SUNNY     26   6  42 W3        30.37R
GORDONSVILLE*  FAIR      20  15  81 CALM      30.38R
ORANGE*        SUNNY     23  18  80 CALM      30.39R
LOUISA*        SUNNY     19  16  86 CALM      30.37R
BUMPASS*       FAIR      23  12  62 CALM      30.38R
FARMVILLE*     SUNNY     24  18  75 CALM      30.38R
CREWE*         FAIR      22  15  73 MISG      30.39R
FORT PICKETT*  FAIR      25  14  65 CALM      30.39R
CHASE CITY*    FAIR      27  16  63 CALM      30.39R
CLARKSVILLE*   FAIR      27  14  59 NW5       30.39R
SOUTH HILL*    SUNNY     24  11  59 NE3       30.45R
LAWRENCEVILLE* FAIR      25  15  66 N3        30.39R
EMPORIA*       SUNNY     27  14  59 NW3       30.42R
$$

VAZ088>098-291300-
SOUTHEAST VIRGINIA

CITY           SKY/WX    TMP DP  RH WIND       PRES   REMARKS
NORFOLK        SUNNY     30   8  39 N10G20    30.36R WCI  21
VIRGINIA BEACH MOSUNNY   33  11  39 N17       30.35R WCI  22
NORFOLK NAVAL  MOSUNNY   33   8  35 NW18G25   30.39R WCI  22
WEST POINT*    SUNNY     30   6  37 NW7       30.41R
SALUDA*        FAIR      29  10  45 NW14G21   30.37R WCI  18
NEWPORT NEWS   NOT AVBL
LANGLEY AFB    SUNNY     29   6  38 N14       30.37R WCI  18
FORT EUSTIS    SUNNY     29  11  47 N10G22    30.37R WCI  20
WILLIAMSBURG*  SUNNY     28  12  50 NW7       30.40R
HR EXEC AP*    FAIR      28  10  47 NW5       30.39R
FRANKLIN*      SUNNY     27  10  48 N6        30.40R
WAKEFIELD      SUNNY     28   8  43 N7        30.40R
$$

VAZ020-022-025-037-045-291300-
WEST CENTRAL AND SOUTHWEST VIRGINIA

CITY           SKY/WX    TMP DP  RH WIND       PRES   REMARKS
STAUNTON*      CLEAR     18  11  74 CALM      30.37R
WAYNESBORO*    FAIR      21   6  53 W5        30.33R
HOT SPRINGS VA FAIR      13   2  61 NW12      30.16R WCI  -1
LYNCHBURG      CLEAR     22  14  71 W5        30.38R
DANVILLE       CLEAR     30  14  51 NW5       30.40R
SOUTH BOSTON*  FAIR      22  17  80 CALM      30.40R
MARTINSVILLE   CLEAR     21  14  75 CALM      30.41R
ROANOKE        CLEAR     25   6  44 N3        30.39R
BLACKSBURG     CLEAR     20   9  62 W3        30.35R
DUBLIN*        CLEAR     23  11  61 W3        30.35R
MARION*        CLEAR     21   9  57 W6        30.33R
HILLSVILLE*    CLEAR     20   8  58 NW6       30.29R
RICHLANDS*     FAIR      20   5  52 CALM      30.30R
WISE*          CLEAR     21   9  58 SE3       30.30R
ABINGDON*      CLEAR     21  13  72 CALM      30.34R
$$

MDZ021>025-VAZ099-100-291300-
SOUTHERN MARYLAND AND THE DELMARVA PENINSULA

CITY           SKY/WX    TMP DP  RH WIND       PRES   REMARKS
PATUXENT RIVER SUNNY     28   9  44 NW20G28   30.36R WCI  15
BAY BRIDGE APT   N/A     28  10  47 NW15      30.36R WCI  17
LEONARDTOWN    SUNNY     27   9  46 NW7       30.38R
DOVER          SUNNY     27   9  46 NW13      30.32R WCI  17
GEORGETOWN     SUNNY     27   8  44 NW9       30.32R
EASTON         SUNNY     28  14  54 NW10      30.38R WCI  19
CAMBRIDGE      SUNNY     32  12  43 NW10G18   30.34R WCI  24
SALISBURY      SUNNY     28   9  44 NW9       30.32R
OCEAN CITY     SUNNY     27   8  44 NW13      30.32R WCI  16
WALLOPS ISLAND SUNNY     28   9  44 NW10      30.34R WCI  19
ACCOMACK*      MOSUNNY   32   9  37 NW12G21   30.34R WCI  23
$$

NCZ012>017-030>032-291300-
NORTH CENTRAL AND EASTERN NORTH CAROLINA

CITY           SKY/WX    TMP DP  RH WIND       PRES   REMARKS
ROANOKE RAPIDS FAIR      28  16  59 N5        30.41R
RALEIGH        SUNNY     25  16  68 CALM      30.41R
ELIZABETH CITY SUNNY     30  13  49 NW13      30.37R WCI  20
AHOSKIE*       SUNNY     27  14  56 N3        30.41R
EDENTON*       SUNNY     29  15  55 N9        30.38R
CURRITUCK*     SUNNY     29  14  54 NW3       30.36R
KILL DEVIL HLS SUNNY     32  13  46 NW9       30.34R
MANTEO         SUNNY     32  12  42 NW12G24   30.35R WCI  23
CAPE HATTERAS  SUNNY     33  13  43 N10G23    30.35R WCI  25
TARBORO*       FAIR      29  16  58 NW7       30.42R
GOLDSBORO      SUNNY     30  22  72 NW6       30.39R
WASHINGTON     SUNNY     28  18  65 CALM      30.40R
GREENVILLE     SUNNY     30  18  59 N3        30.40R
NEW BERN       SUNNY     31  18  58 NW6       30.40R
WILMINGTON     SUNNY     31  18  58 N8        30.40R
$$

VAZ048-291300-
ELSEWHERE

CITY           SKY/WX    TMP DP  RH WIND       PRES   REMARKS
HARRISBURG PA  SUNNY     25  11  55 W14       30.33R WCI  13
BALTIMORE      SUNNY     25   9  50 NW8       30.36R
ANNAPOLIS      SUNNY     27  11  51 NW12      30.36R WCI  17
ANDREWS AFB    SUNNY     26   8  45 NW13      30.36R WCI  15
PHILADELPHIA   MOSUNNY   28   6  39 NW13      30.31R WCI  17
HENDERSON NC   SUNNY     27  11  51 CALM      30.40R
GREENSBORO     CLEAR     28   9  44 N3        30.37R
ROCKY MOUNT    SUNNY     30  14  51 N8        30.41R
$$

VAZ100-291300-
MARINE

STATION/POSITION TIME  TEMP    WIND        PRES    WAVE   SWELL
                       AIR SEA DIR/SP/G            HT/PER HT/PER
                 (UTC) (F)     (DEG/KT/KT) (MB)    (FT/S) (FT/S)
15NM E FENWICK I 1150   30 39              1024.6R   6/ 5
THOMAS POINT MD  1200                        N/A
STINGRAY PT      1200   30 43  320/ 16/ 21   N/A     2/ 3
CHESAPEAKE LGHT  1100   31     340/ 23/ 26 1026.9R
CAPE HENRY BUOY  1128      40                N/A     5/ 4
1ST LANDING BUOY 1200   32     340/ 19/ 23 1027.5R   3/ 4
OFFSHORE WE BUOY 1111      40                N/A     5/ 5   2/ 8
64NM E OF VA BCH 1150   35 52  330/ 21/ 27 1025.3R   7/ 6   2/10
44056 DUCK FRF   1111      42                N/A     4/ 6
CAPE LOOKOUT NC  1200   34     350/ 16/ 19 1028.3R
$$


USA.gov is the U.S. government's official web portal to all federal, state and local government web resources and services.